Year,Month,Day,Hour,Minute,Value (Times are PST for temperature in C)
2008,12,15,00,00,-4.90
2008,12,15,00,01,-4.90
2008,12,15,00,02,-4.90
2008,12,15,00,03,-4.90
2008,12,15,00,04,-4.90
2008,12,15,00,05,-4.90
2008,12,15,00,06,-4.90
2008,12,15,00,07,-4.90
2008,12,15,00,08,-4.90
2008,12,15,00,09,-4.90
2008,12,15,00,10,-4.90
2008,12,15,00,11,-4.80
2008,12,15,00,12,-4.80
2008,12,15,00,13,-4.80
2008,12,15,00,14,-4.80
2008,12,15,00,15,-4.80
2008,12,15,00,16,-4.80
2008,12,15,00,17,-4.80
2008,12,15,00,18,-4.80
2008,12,15,00,19,-4.80
2008,12,15,00,20,-4.80
2008,12,15,00,21,-4.80
2008,12,15,00,22,-4.80
2008,12,15,00,23,-4.80
2008,12,15,00,24,-4.80
2008,12,15,00,25,-4.80
2008,12,15,00,26,-4.80
2008,12,15,00,27,-4.80
2008,12,15,00,28,-4.90
2008,12,15,00,29,-4.90
2008,12,15,00,30,-4.90
2008,12,15,00,31,-4.90
2008,12,15,00,32,-4.80
2008,12,15,00,33,-4.80
2008,12,15,00,34,-4.80
2008,12,15,00,35,-4.80
2008,12,15,00,36,-4.80
2008,12,15,00,37,-4.80
2008,12,15,00,38,-4.80
2008,12,15,00,39,-4.80
2008,12,15,00,40,-4.80
2008,12,15,00,41,-4.80
2008,12,15,00,42,-4.80
2008,12,15,00,43,-4.80
2008,12,15,00,44,-4.80
2008,12,15,00,45,-4.80
2008,12,15,00,46,-4.80
2008,12,15,00,47,-4.80
2008,12,15,00,48,-4.80
2008,12,15,00,49,-4.80
2008,12,15,00,50,-4.80
2008,12,15,00,51,-4.90
2008,12,15,00,52,-4.90
2008,12,15,00,53,-4.90
2008,12,15,00,54,-4.90
2008,12,15,00,55,-4.90
2008,12,15,00,56,-4.90
2008,12,15,00,57,-4.90
2008,12,15,00,58,-4.80
2008,12,15,00,59,-4.80
2008,12,15,01,00,-4.80
2008,12,15,01,01,-4.80
2008,12,15,01,02,-4.80
2008,12,15,01,03,-4.80
2008,12,15,01,04,-4.80
2008,12,15,01,05,-4.90
2008,12,15,01,06,-4.80
2008,12,15,01,07,-4.80
2008,12,15,01,08,-4.80
2008,12,15,01,09,-4.80
2008,12,15,01,10,-4.80
2008,12,15,01,11,-4.80
2008,12,15,01,12,-4.90
2008,12,15,01,13,-4.90
2008,12,15,01,14,-4.90
2008,12,15,01,15,-4.90
2008,12,15,01,16,-5.00
2008,12,15,01,17,-5.00
2008,12,15,01,18,-5.00
2008,12,15,01,19,-5.00
2008,12,15,01,20,-4.90
2008,12,15,01,21,-4.90
2008,12,15,01,22,-4.90
2008,12,15,01,23,-4.90
2008,12,15,01,24,-4.90
2008,12,15,01,25,-4.90
2008,12,15,01,26,-5.00
2008,12,15,01,27,-5.00
2008,12,15,01,28,-5.00
2008,12,15,01,29,-5.00
2008,12,15,01,30,-4.90
2008,12,15,01,31,-4.90
2008,12,15,01,32,-4.90
2008,12,15,01,33,-5.00
2008,12,15,01,34,-5.00
2008,12,15,01,35,-5.00
2008,12,15,01,36,-5.00
2008,12,15,01,37,-5.10
2008,12,15,01,38,-5.10
2008,12,15,01,39,-5.10
2008,12,15,01,40,-5.10
2008,12,15,01,41,-5.10
2008,12,15,01,42,-5.00
2008,12,15,01,43,-5.00
2008,12,15,01,44,-5.00
2008,12,15,01,45,-5.00
2008,12,15,01,46,-5.00
2008,12,15,01,47,-5.00
2008,12,15,01,48,-5.00
2008,12,15,01,49,-5.00
2008,12,15,01,50,-5.00
2008,12,15,01,51,-5.00
2008,12,15,01,52,-5.00
2008,12,15,01,53,-5.00
2008,12,15,01,54,-5.00
2008,12,15,01,55,-5.00
2008,12,15,01,56,-5.00
2008,12,15,01,57,-5.00
2008,12,15,01,58,-5.00
2008,12,15,01,59,-5.00
2008,12,15,02,00,-5.00
2008,12,15,02,01,-5.00
2008,12,15,02,02,-5.00
2008,12,15,02,03,-4.90
2008,12,15,02,04,-4.90
2008,12,15,02,05,-4.90
2008,12,15,02,06,-4.90
2008,12,15,02,07,-4.90
2008,12,15,02,08,-4.90
2008,12,15,02,09,-4.90
2008,12,15,02,10,-4.90
2008,12,15,02,11,-4.90
2008,12,15,02,12,-4.90
2008,12,15,02,13,-4.90
2008,12,15,02,14,-4.80
2008,12,15,02,15,-4.80
2008,12,15,02,16,-4.80
2008,12,15,02,17,-4.80
2008,12,15,02,18,-4.90
2008,12,15,02,19,-4.90
2008,12,15,02,20,-4.90
2008,12,15,02,21,-4.90
2008,12,15,02,22,-4.90
2008,12,15,02,23,-4.90
2008,12,15,02,24,-4.90
2008,12,15,02,25,-4.90
2008,12,15,02,26,-4.80
2008,12,15,02,27,-4.80
2008,12,15,02,28,-4.80
2008,12,15,02,29,-4.80
2008,12,15,02,30,-4.80
2008,12,15,02,31,-4.80
2008,12,15,02,32,-4.80
2008,12,15,02,33,-4.80
2008,12,15,02,34,-4.80
2008,12,15,02,35,-4.80
2008,12,15,02,36,-4.80
2008,12,15,02,37,-4.80
2008,12,15,02,38,-4.80
2008,12,15,02,39,-4.80
2008,12,15,02,40,-4.80
2008,12,15,02,41,-4.80
2008,12,15,02,42,-4.80
2008,12,15,02,43,-4.80
2008,12,15,02,44,-4.80
2008,12,15,02,45,-4.80
2008,12,15,02,46,-4.80
2008,12,15,02,47,-4.80
2008,12,15,02,48,-4.80
2008,12,15,02,49,-4.80
2008,12,15,02,50,-4.80
2008,12,15,02,51,-4.80
2008,12,15,02,52,-4.80
2008,12,15,02,53,-4.80
2008,12,15,02,54,-4.80
2008,12,15,02,55,-4.70
2008,12,15,02,56,-4.70
2008,12,15,02,57,-4.70
2008,12,15,02,58,-4.70
2008,12,15,02,59,-4.70
2008,12,15,03,00,-4.70
2008,12,15,03,01,-4.70
2008,12,15,03,02,-4.70
2008,12,15,03,03,-4.70
2008,12,15,03,04,-4.70
2008,12,15,03,05,-4.80
2008,12,15,03,06,-4.70
2008,12,15,03,07,-4.70
2008,12,15,03,08,-4.70
2008,12,15,03,09,-4.70
2008,12,15,03,10,-4.70
2008,12,15,03,11,-4.70
2008,12,15,03,12,-4.70
2008,12,15,03,13,-4.70
2008,12,15,03,14,-4.70
2008,12,15,03,15,-4.70
2008,12,15,03,16,-4.70
2008,12,15,03,17,-4.70
2008,12,15,03,18,-4.70
2008,12,15,03,19,-4.70
2008,12,15,03,20,-4.70
2008,12,15,03,21,-4.80
2008,12,15,03,22,-4.80
2008,12,15,03,23,-4.80
2008,12,15,03,24,-4.70
2008,12,15,03,25,-4.70
2008,12,15,03,26,-4.70
2008,12,15,03,27,-4.70
2008,12,15,03,28,-4.70
2008,12,15,03,29,-4.70
2008,12,15,03,30,-4.80
2008,12,15,03,31,-4.80
2008,12,15,03,32,-4.80
2008,12,15,03,33,-4.80
2008,12,15,03,34,-4.80
2008,12,15,03,35,-4.80
2008,12,15,03,36,-4.80
2008,12,15,03,37,-4.80
2008,12,15,03,38,-4.80
2008,12,15,03,39,-4.80
2008,12,15,03,40,-4.80
2008,12,15,03,41,-4.80
2008,12,15,03,42,-4.80
2008,12,15,03,43,-4.80
2008,12,15,03,44,-4.80
2008,12,15,03,45,-4.80
2008,12,15,03,46,-4.80
2008,12,15,03,47,-4.80
2008,12,15,03,48,-4.80
2008,12,15,03,49,-4.90
2008,12,15,03,50,-4.80
2008,12,15,03,51,-4.80
2008,12,15,03,52,-4.80
2008,12,15,03,53,-4.80
2008,12,15,03,54,-4.80
2008,12,15,03,55,-4.80
2008,12,15,03,56,-4.70
2008,12,15,03,57,-4.70
2008,12,15,03,58,-4.80
2008,12,15,03,59,-4.80
2008,12,15,04,00,-4.80
2008,12,15,04,01,-4.80
2008,12,15,04,02,-4.80
2008,12,15,04,03,-4.80
2008,12,15,04,04,-4.80
2008,12,15,04,05,-4.80
2008,12,15,04,06,-4.80
2008,12,15,04,07,-4.80
2008,12,15,04,08,-4.80
2008,12,15,04,09,-4.80
2008,12,15,04,10,-4.80
2008,12,15,04,11,-4.80
2008,12,15,04,12,-4.80
2008,12,15,04,13,-4.80
2008,12,15,04,14,-4.80
2008,12,15,04,15,-4.80
2008,12,15,04,16,-4.80
2008,12,15,04,17,-4.80
2008,12,15,04,18,-4.80
2008,12,15,04,19,-4.80
2008,12,15,04,20,-4.80
2008,12,15,04,21,-4.80
2008,12,15,04,22,-4.80
2008,12,15,04,23,-4.80
2008,12,15,04,24,-4.70
2008,12,15,04,25,-4.70
2008,12,15,04,26,-4.80
2008,12,15,04,27,-4.80
2008,12,15,04,28,-4.80
2008,12,15,04,29,-4.80
2008,12,15,04,30,-4.80
2008,12,15,04,31,-4.70
2008,12,15,04,32,-4.70
2008,12,15,04,33,-4.70
2008,12,15,04,34,-4.70
2008,12,15,04,35,-4.70
2008,12,15,04,36,-4.80
2008,12,15,04,37,-4.80
2008,12,15,04,38,-4.80
2008,12,15,04,39,-4.80
2008,12,15,04,40,-4.80
2008,12,15,04,41,-4.80
2008,12,15,04,42,-4.80
2008,12,15,04,43,-4.80
2008,12,15,04,44,-4.80
2008,12,15,04,45,-4.80
2008,12,15,04,46,-4.80
2008,12,15,04,47,-4.80
2008,12,15,04,48,-4.80
2008,12,15,04,49,-4.90
2008,12,15,04,50,-4.90
2008,12,15,04,51,-4.90
2008,12,15,04,52,-4.80
2008,12,15,04,53,-4.80
2008,12,15,04,54,-4.80
2008,12,15,04,55,-4.80
2008,12,15,04,56,-4.80
2008,12,15,04,57,-4.80
2008,12,15,04,58,-4.90
2008,12,15,04,59,-4.90
2008,12,15,05,00,-4.80
2008,12,15,05,01,-4.80
2008,12,15,05,02,-4.80
2008,12,15,05,03,-4.80
2008,12,15,05,04,-4.80
2008,12,15,05,05,-4.80
2008,12,15,05,06,-4.80
2008,12,15,05,07,-4.80
2008,12,15,05,08,-4.80
2008,12,15,05,09,-4.80
2008,12,15,05,10,-4.80
2008,12,15,05,11,-4.80
2008,12,15,05,12,-4.80
2008,12,15,05,13,-4.80
2008,12,15,05,14,-4.80
2008,12,15,05,15,-4.80
2008,12,15,05,16,-4.80
2008,12,15,05,17,-4.80
2008,12,15,05,18,-4.80
2008,12,15,05,19,-4.80
2008,12,15,05,20,-4.80
2008,12,15,05,21,-4.80
2008,12,15,05,22,-4.70
2008,12,15,05,23,-4.80
2008,12,15,05,24,-4.80
2008,12,15,05,25,-4.80
2008,12,15,05,26,-4.80
2008,12,15,05,27,-4.80
2008,12,15,05,28,-4.80
2008,12,15,05,29,-4.80
2008,12,15,05,30,-4.80
2008,12,15,05,31,-4.80
2008,12,15,05,32,-4.80
2008,12,15,05,33,-4.80
2008,12,15,05,34,-4.70
2008,12,15,05,35,-4.80
2008,12,15,05,36,-4.80
2008,12,15,05,37,-4.80
2008,12,15,05,38,-4.80
2008,12,15,05,39,-4.80
2008,12,15,05,40,-4.80
2008,12,15,05,41,-4.80
2008,12,15,05,42,-4.80
2008,12,15,05,43,-4.80
2008,12,15,05,44,-4.80
2008,12,15,05,45,-4.80
2008,12,15,05,46,-4.80
2008,12,15,05,47,-4.80
2008,12,15,05,48,-4.80
2008,12,15,05,49,-4.80
2008,12,15,05,50,-4.80
2008,12,15,05,51,-4.80
2008,12,15,05,52,-4.80
2008,12,15,05,53,-4.80
2008,12,15,05,54,-4.80
2008,12,15,05,55,-4.80
2008,12,15,05,56,-4.80
2008,12,15,05,57,-4.80
2008,12,15,05,58,-4.80
2008,12,15,05,59,-4.80
2008,12,15,06,00,-4.80
2008,12,15,06,01,-4.80
2008,12,15,06,02,-4.80
2008,12,15,06,03,-4.80
2008,12,15,06,04,-4.70
2008,12,15,06,05,-4.70
2008,12,15,06,06,-4.70
2008,12,15,06,07,-4.70
2008,12,15,06,08,-4.70
2008,12,15,06,09,-4.70
2008,12,15,06,10,-4.70
2008,12,15,06,11,-4.70
2008,12,15,06,12,-4.70
2008,12,15,06,13,-4.70
2008,12,15,06,14,-4.70
2008,12,15,06,15,-4.70
2008,12,15,06,16,-4.70
2008,12,15,06,17,-4.70
2008,12,15,06,18,-4.70
2008,12,15,06,19,-4.60
2008,12,15,06,20,-4.60
2008,12,15,06,21,-4.60
2008,12,15,06,22,-4.60
2008,12,15,06,23,-4.60
2008,12,15,06,24,-4.60
2008,12,15,06,25,-4.60
2008,12,15,06,26,-4.60
2008,12,15,06,27,-4.60
2008,12,15,06,28,-4.60
2008,12,15,06,29,-4.60
2008,12,15,06,30,-4.60
2008,12,15,06,31,-4.60
2008,12,15,06,32,-4.60
2008,12,15,06,33,-4.50
2008,12,15,06,34,-4.50
2008,12,15,06,35,-4.50
2008,12,15,06,36,-4.50
2008,12,15,06,37,-4.50
2008,12,15,06,38,-4.60
2008,12,15,06,39,-4.60
2008,12,15,06,40,-4.60
2008,12,15,06,41,-4.50
2008,12,15,06,42,-4.50
2008,12,15,06,43,-4.50
2008,12,15,06,44,-4.50
2008,12,15,06,45,-4.50
2008,12,15,06,46,-4.50
2008,12,15,06,47,-4.50
2008,12,15,06,48,-4.50
2008,12,15,06,49,-4.50
2008,12,15,06,50,-4.50
2008,12,15,06,51,-4.50
2008,12,15,06,52,-4.50
2008,12,15,06,53,-4.50
2008,12,15,06,54,-4.50
2008,12,15,06,55,-4.50
2008,12,15,06,56,-4.50
2008,12,15,06,57,-4.50
2008,12,15,06,58,-4.50
2008,12,15,06,59,-4.50
2008,12,15,07,00,-4.50
2008,12,15,07,01,-4.50
2008,12,15,07,02,-4.50
2008,12,15,07,03,-4.50
2008,12,15,07,04,-4.50
2008,12,15,07,05,-4.50
2008,12,15,07,06,-4.50
2008,12,15,07,07,-4.50
2008,12,15,07,08,-4.50
2008,12,15,07,09,-4.50
2008,12,15,07,10,-4.60
2008,12,15,07,11,-4.60
2008,12,15,07,12,-4.60
2008,12,15,07,13,-4.60
2008,12,15,07,14,-4.60
2008,12,15,07,15,-4.60
2008,12,15,07,16,-4.60
2008,12,15,07,17,-4.60
2008,12,15,07,18,-4.60
2008,12,15,07,19,-4.60
2008,12,15,07,20,-4.60
2008,12,15,07,21,-4.60
2008,12,15,07,22,-4.70
2008,12,15,07,23,-4.70
2008,12,15,07,24,-4.70
2008,12,15,07,25,-4.60
2008,12,15,07,26,-4.60
2008,12,15,07,27,-4.60
2008,12,15,07,28,-4.60
2008,12,15,07,29,-4.70
2008,12,15,07,30,-4.70
2008,12,15,07,31,-4.70
2008,12,15,07,32,-4.60
2008,12,15,07,33,-4.60
2008,12,15,07,34,-4.60
2008,12,15,07,35,-4.60
2008,12,15,07,36,-4.60
2008,12,15,07,37,-4.60
2008,12,15,07,38,-4.60
2008,12,15,07,39,-4.60
2008,12,15,07,40,-4.70
2008,12,15,07,41,-4.60
2008,12,15,07,42,-4.60
2008,12,15,07,43,-4.60
2008,12,15,07,44,-4.60
2008,12,15,07,45,-4.60
2008,12,15,07,46,-4.60
2008,12,15,07,47,-4.60
2008,12,15,07,48,-4.60
2008,12,15,07,49,-4.60
2008,12,15,07,50,-4.60
2008,12,15,07,51,-4.60
2008,12,15,07,52,-4.60
2008,12,15,07,53,-4.60
2008,12,15,07,54,-4.60
2008,12,15,07,55,-4.60
2008,12,15,07,56,-4.60
2008,12,15,07,57,-4.60
2008,12,15,07,58,-4.60
2008,12,15,07,59,-4.60
2008,12,15,08,00,-4.60
2008,12,15,08,01,-4.60
2008,12,15,08,02,-4.60
2008,12,15,08,03,-4.60
2008,12,15,08,04,-4.60
2008,12,15,08,05,-4.60
2008,12,15,08,06,-4.60
2008,12,15,08,07,-4.50
2008,12,15,08,08,-4.60
2008,12,15,08,09,-4.50
2008,12,15,08,10,-4.60
2008,12,15,08,11,-4.50
2008,12,15,08,12,-4.50
2008,12,15,08,13,-4.50
2008,12,15,08,14,-4.50
2008,12,15,08,15,-4.50
2008,12,15,08,16,-4.50
2008,12,15,08,17,-4.50
2008,12,15,08,18,-4.50
2008,12,15,08,19,-4.50
2008,12,15,08,20,-4.50
2008,12,15,08,21,-4.50
2008,12,15,08,22,-4.50
2008,12,15,08,23,-4.50
2008,12,15,08,24,-4.50
2008,12,15,08,25,-4.50
2008,12,15,08,26,-4.50
2008,12,15,08,27,-4.50
2008,12,15,08,28,-4.40
2008,12,15,08,29,-4.40
2008,12,15,08,30,-4.40
2008,12,15,08,31,-4.40
2008,12,15,08,32,-4.40
2008,12,15,08,33,-4.40
2008,12,15,08,34,-4.40
2008,12,15,08,35,-4.30
2008,12,15,08,36,-4.30
2008,12,15,08,37,-4.30
2008,12,15,08,38,-4.30
2008,12,15,08,39,-4.30
2008,12,15,08,40,-4.20
2008,12,15,08,41,-4.20
2008,12,15,08,42,-4.20
2008,12,15,08,43,-4.30
2008,12,15,08,44,-4.30
2008,12,15,08,45,-4.30
2008,12,15,08,46,-4.30
2008,12,15,08,47,-4.30
2008,12,15,08,48,-4.30
2008,12,15,08,49,-4.30
2008,12,15,08,50,-4.30
2008,12,15,08,51,-4.20
2008,12,15,08,52,-4.20
2008,12,15,08,53,-4.20
2008,12,15,08,54,-4.20
2008,12,15,08,55,-4.20
2008,12,15,08,56,-4.20
2008,12,15,08,57,-4.20
2008,12,15,08,58,-4.20
2008,12,15,08,59,-4.20
2008,12,15,09,00,-4.20
2008,12,15,09,01,-4.10
2008,12,15,09,02,-4.10
2008,12,15,09,03,-4.10
2008,12,15,09,04,-4.10
2008,12,15,09,05,-4.10
2008,12,15,09,06,-4.10
2008,12,15,09,07,-4.10
2008,12,15,09,08,-4.10
2008,12,15,09,09,-4.10
2008,12,15,09,10,-4.00
2008,12,15,09,11,-4.00
2008,12,15,09,12,-4.00
2008,12,15,09,13,-4.00
2008,12,15,09,14,-4.00
2008,12,15,09,15,-4.00
2008,12,15,09,16,-4.00
2008,12,15,09,17,-4.00
2008,12,15,09,18,-4.00
2008,12,15,09,19,-4.00
2008,12,15,09,20,-4.00
2008,12,15,09,21,-4.00
2008,12,15,09,22,-4.00
2008,12,15,09,23,-4.00
2008,12,15,09,24,-4.00
2008,12,15,09,25,-4.00
2008,12,15,09,26,-4.00
2008,12,15,09,27,-4.00
2008,12,15,09,28,-4.00
2008,12,15,09,29,-4.00
2008,12,15,09,30,-4.00
2008,12,15,09,31,-3.90
2008,12,15,09,32,-3.90
2008,12,15,09,33,-3.90
2008,12,15,09,34,-3.90
2008,12,15,09,35,-3.90
2008,12,15,09,36,-3.80
2008,12,15,09,37,-3.80
2008,12,15,09,38,-3.80
2008,12,15,09,39,-3.90
2008,12,15,09,40,-3.90
2008,12,15,09,41,-3.90
2008,12,15,09,42,-3.90
2008,12,15,09,43,-3.90
2008,12,15,09,44,-3.90
2008,12,15,09,45,-3.90
2008,12,15,09,46,-3.90
2008,12,15,09,47,-3.90
2008,12,15,09,48,-3.90
2008,12,15,09,49,-3.90
2008,12,15,09,50,-3.90
2008,12,15,09,51,-3.90
2008,12,15,09,52,-3.90
2008,12,15,09,53,-3.90
2008,12,15,09,54,-3.90
2008,12,15,09,55,-3.80
